CPA973 ZSAM-VHHH

Flight info

Callsign CPA973
Flight time 0h 32m
Altitude 25600
Route NUSPA9Z NUSPA W597 IKATA A470 BEBEM/N0431F256 A470 DOTMI V512 ABBEY
Aircraft B773/H-SDE3FGHIJ3J7M3P2RWX/LB1D1

Departure

Time 2026-04-30 08:10
Airport Xiamen Gaoqi International Airport (ZSAM)

Arrival

Time 2026-04-30 08:42
Airport Hong Kong International Airport (VHHH)
Time Latitude Longitude Altitude Speed Heading
2026-04-30 04:53 24.54423 118.13455 56 ft 0 kts 143°
2026-04-30 07:08 24.54423 118.13454 56 ft 0 kts 143°
2026-04-30 08:00 24.54435 118.13444 48 ft 4 kts 147°
2026-04-30 08:01 24.54458 118.13429 48 ft 4 kts 154°
2026-04-30 08:01 24.54482 118.13417 48 ft 4 kts 159°
2026-04-30 08:01 24.54497 118.13411 48 ft 4 kts 161°
2026-04-30 08:01 24.54508 118.13407 48 ft 0 kts 161°
2026-04-30 08:04 24.54503 118.13408 48 ft 2 kts 170°
2026-04-30 08:04 24.54477 118.13395 51 ft 6 kts 216°
2026-04-30 08:05 24.54435 118.13348 49 ft 10 kts 230°
2026-04-30 08:05 24.54394 118.13289 50 ft 10 kts 231°
2026-04-30 08:05 24.54379 118.13221 51 ft 10 kts 294°
2026-04-30 08:05 24.54434 118.13170 54 ft 10 kts 322°
2026-04-30 08:06 24.54443 118.13098 51 ft 11 kts 242°
2026-04-30 08:06 24.54387 118.13021 50 ft 21 kts 232°
2026-04-30 08:06 24.54269 118.12854 55 ft 29 kts 231°
2026-04-30 08:06 24.54143 118.12679 52 ft 29 kts 232°
2026-04-30 08:07 24.54018 118.12504 53 ft 29 kts 232°
2026-04-30 08:07 24.53894 118.12332 55 ft 29 kts 232°
2026-04-30 08:07 24.53769 118.12157 57 ft 29 kts 231°
2026-04-30 08:07 24.53643 118.11982 57 ft 29 kts 232°
2026-04-30 08:08 24.53519 118.11806 58 ft 29 kts 231°
2026-04-30 08:08 24.53407 118.11648 62 ft 14 kts 242°
2026-04-30 08:08 24.53401 118.11574 70 ft 9 kts 279°
2026-04-30 08:08 24.53423 118.11508 64 ft 9 kts 299°
2026-04-30 08:09 24.53472 118.11467 64 ft 9 kts 357°
2026-04-30 08:09 24.53519 118.11515 64 ft 10 kts 54°
2026-04-30 08:09 24.53601 118.11620 60 ft 33 kts 44°
2026-04-30 08:09 24.53863 118.11998 54 ft 101 kts 52°
2026-04-30 08:10 24.54446 118.12823 53 ft 169 kts 54°
2026-04-30 08:10 24.55199 118.13870 640 ft 178 kts 52°
2026-04-30 08:10 24.55974 118.14934 1514 ft 177 kts 51°
2026-04-30 08:10 24.56757 118.16033 2170 ft 183 kts 51°
2026-04-30 08:11 24.57542 118.17134 2840 ft 189 kts 50°
2026-04-30 08:11 24.58355 118.18274 3522 ft 191 kts 50°
2026-04-30 08:11 24.59220 118.19486 3938 ft 208 kts 50°
2026-04-30 08:11 24.60123 118.20752 4501 ft 217 kts 50°
2026-04-30 08:12 24.61075 118.22088 5106 ft 225 kts 50°
2026-04-30 08:12 24.61939 118.23523 5711 ft 230 kts 66°
2026-04-30 08:12 24.62249 118.25263 6310 ft 236 kts 93°
2026-04-30 08:12 24.61845 118.27007 6894 ft 237 kts 121°
2026-04-30 08:13 24.60782 118.28365 7489 ft 234 kts 149°
2026-04-30 08:13 24.59305 118.29048 8071 ft 229 kts 176°
2026-04-30 08:13 24.57752 118.28960 8707 ft 221 kts 201°
2026-04-30 08:13 24.56436 118.28197 9358 ft 215 kts 223°
2026-04-30 08:14 24.55393 118.27033 9995 ft 213 kts 233°
2026-04-30 08:14 24.54470 118.25749 10580 ft 215 kts 235°
2026-04-30 08:14 24.53544 118.24439 11145 ft 219 kts 235°
2026-04-30 08:14 24.52604 118.23113 11720 ft 221 kts 235°
2026-04-30 08:15 24.51648 118.21772 12336 ft 223 kts 235°
2026-04-30 08:15 24.50678 118.20401 12771 ft 236 kts 235°
2026-04-30 08:15 24.49620 118.18899 12956 ft 260 kts 235°
2026-04-30 08:15 24.48479 118.17283 13365 ft 274 kts 235°
2026-04-30 08:16 24.47281 118.15590 13651 ft 296 kts 235°
2026-04-30 08:16 24.45961 118.13725 13833 ft 321 kts 234°
2026-04-30 08:16 24.44546 118.11729 13994 ft 345 kts 234°
2026-04-30 08:16 24.43032 118.09598 14339 ft 360 kts 234°
2026-04-30 08:17 24.36686 118.00684 17066 ft 377 kts 234°
2026-04-30 08:17 24.24572 117.83706 21764 ft 401 kts 233°
2026-04-30 08:17 24.15623 117.73944 24318 ft 417 kts 225°
2026-04-30 08:17 24.13523 117.71815 24424 ft 413 kts 226°
2026-04-30 08:18 24.11453 117.69664 24524 ft 408 kts 226°
2026-04-30 08:18 24.08331 117.66334 24717 ft 408 kts 227°
2026-04-30 08:18 24.00217 117.57630 25183 ft 407 kts 227°
2026-04-30 08:18 23.92206 117.49049 25619 ft 402 kts 227°
2026-04-30 08:19 23.84565 117.39913 25693 ft 409 kts 241°
2026-04-30 08:19 23.80661 117.28363 25681 ft 405 kts 254°
2026-04-30 08:19 23.77323 117.16755 25611 ft 398 kts 248°
2026-04-30 08:19 23.75630 117.13292 25618 ft 397 kts 239°
2026-04-30 08:20 23.74606 117.11632 25626 ft 400 kts 236°
2026-04-30 08:20 23.72810 117.09277 25655 ft 407 kts 229°
2026-04-30 08:20 23.70180 117.06284 25629 ft 408 kts 228°
2026-04-30 08:20 23.68867 117.04818 25632 ft 408 kts 228°
2026-04-30 08:21 23.66222 117.01862 25628 ft 407 kts 228°
2026-04-30 08:21 23.64250 116.99645 25626 ft 406 kts 228°
2026-04-30 08:21 23.62288 116.97427 25630 ft 406 kts 229°
2026-04-30 08:21 23.60995 116.95961 25639 ft 405 kts 229°
2026-04-30 08:22 23.59047 116.93748 25627 ft 405 kts 229°
2026-04-30 08:22 23.57096 116.91530 25629 ft 405 kts 229°
2026-04-30 08:22 23.55144 116.89311 25638 ft 405 kts 229°
2026-04-30 08:22 23.53190 116.87092 25628 ft 405 kts 229°
2026-04-30 08:23 23.51237 116.84874 25641 ft 406 kts 229°
2026-04-30 08:23 23.49282 116.82656 25623 ft 406 kts 229°
2026-04-30 08:23 23.47323 116.80434 25638 ft 407 kts 229°
2026-04-30 08:23 23.45363 116.78214 25633 ft 407 kts 228°
2026-04-30 08:24 23.43315 116.76079 25635 ft 409 kts 223°
2026-04-30 08:24 23.41075 116.74157 25633 ft 410 kts 220°
2026-04-30 08:24 23.38796 116.72280 25635 ft 411 kts 220°
2026-04-30 08:24 23.36510 116.70403 25628 ft 412 kts 220°
2026-04-30 08:25 23.34229 116.68525 25625 ft 412 kts 220°
2026-04-30 08:25 23.31946 116.66640 25631 ft 412 kts 220°
2026-04-30 08:25 23.19600 116.56404 25635 ft 413 kts 220°
2026-04-30 08:25 23.01307 116.41264 25606 ft 414 kts 220°
2026-04-30 08:26 22.83207 116.26269 25622 ft 414 kts 220°
2026-04-30 08:26 22.64684 116.10982 25610 ft 414 kts 219°
2026-04-30 08:26 22.46543 115.96243 25608 ft 413 kts 220°
2026-04-30 08:26 22.29541 115.81476 25427 ft 397 kts 239°
2026-04-30 08:27 22.28549 115.78699 25518 ft 402 kts 262°
2026-04-30 08:27 22.28627 115.75674 25586 ft 404 kts 278°
2026-04-30 08:27 22.29073 115.72659 25606 ft 408 kts 275°
2026-04-30 08:27 22.29267 115.69608 25613 ft 407 kts 270°
2026-04-30 08:28 22.29265 115.66568 25609 ft 401 kts 268°
2026-04-30 08:28 22.29183 115.63597 25502 ft 390 kts 267°
2026-04-30 08:28 22.28848 115.53897 24166 ft 378 kts 268°
2026-04-30 08:28 22.28524 115.42602 22283 ft 372 kts 268°
2026-04-30 08:29 22.28209 115.31664 20512 ft 362 kts 268°
2026-04-30 08:29 22.27877 115.20882 18754 ft 355 kts 268°
2026-04-30 08:29 22.27546 115.10267 16823 ft 351 kts 268°
2026-04-30 08:29 22.27214 114.99861 14972 ft 344 kts 268°
2026-04-30 08:30 22.26978 114.92558 13686 ft 340 kts 268°
2026-04-30 08:30 22.26915 114.90632 13240 ft 341 kts 268°
2026-04-30 08:30 22.26830 114.88065 12754 ft 339 kts 268°
2026-04-30 08:30 22.26748 114.85564 12302 ft 337 kts 268°
2026-04-30 08:31 22.26664 114.83039 11865 ft 335 kts 268°
2026-04-30 08:31 22.26581 114.80535 11407 ft 333 kts 268°
2026-04-30 08:31 22.26309 114.76077 10824 ft 323 kts 262°
2026-04-30 08:31 22.24834 114.66968 10086 ft 295 kts 260°
2026-04-30 08:32 22.23504 114.58663 9422 ft 268 kts 261°
2026-04-30 08:32 22.22299 114.50960 8875 ft 255 kts 261°
2026-04-30 08:32 22.21115 114.43365 8423 ft 262 kts 261°
2026-04-30 08:32 22.19202 114.31147 7670 ft 285 kts 261°
2026-04-30 08:33 22.16686 114.15180 6050 ft 254 kts 261°
2026-04-30 08:33 22.15180 114.05598 5538 ft 263 kts 261°
2026-04-30 08:33 22.13913 113.97638 5021 ft 275 kts 261°
2026-04-30 08:33 22.12624 113.89547 4310 ft 271 kts 262°
2026-04-30 08:34 22.12149 113.86566 4112 ft 265 kts 262°
2026-04-30 08:34 22.11837 113.84623 3942 ft 260 kts 262°
2026-04-30 08:34 22.11535 113.82738 3794 ft 252 kts 262°
2026-04-30 08:34 22.11240 113.80903 3652 ft 244 kts 262°
2026-04-30 08:35 22.11075 113.79134 3493 ft 229 kts 281°
2026-04-30 08:35 22.11662 113.77621 3386 ft 215 kts 311°
2026-04-30 08:35 22.12759 113.76542 3301 ft 215 kts 331°
2026-04-30 08:35 22.14106 113.75809 3208 ft 219 kts 337°
2026-04-30 08:36 22.15511 113.75130 3067 ft 221 kts 337°
2026-04-30 08:36 22.16892 113.74461 2987 ft 213 kts 337°
2026-04-30 08:36 22.18194 113.73822 2914 ft 200 kts 337°
2026-04-30 08:36 22.19433 113.73209 2778 ft 191 kts 337°
2026-04-30 08:37 22.20615 113.72621 2611 ft 183 kts 337°
2026-04-30 08:37 22.21770 113.72047 2485 ft 184 kts 338°
2026-04-30 08:37 22.22967 113.71603 2341 ft 182 kts 360°
2026-04-30 08:37 22.24148 113.71996 2245 ft 180 kts 36°
2026-04-30 08:38 22.25113 113.72873 2223 ft 184 kts 39°
2026-04-30 08:38 22.26078 113.73755 2138 ft 183 kts 39°
2026-04-30 08:38 22.27041 113.74640 2054 ft 181 kts 39°
2026-04-30 08:38 22.27874 113.75646 1946 ft 182 kts 62°
2026-04-30 08:39 22.28400 113.76882 1900 ft 178 kts 62°
2026-04-30 08:39 22.28875 113.78074 1835 ft 169 kts 67°
2026-04-30 08:39 22.29266 113.79232 1715 ft 162 kts 68°
2026-04-30 08:39 22.29641 113.80393 1550 ft 163 kts 69°
2026-04-30 08:40 22.30012 113.81553 1305 ft 160 kts 69°
2026-04-30 08:40 22.30368 113.82661 1090 ft 151 kts 69°
2026-04-30 08:40 22.30710 113.83723 902 ft 148 kts 67°
2026-04-30 08:40 22.31047 113.84774 724 ft 149 kts 68°
2026-04-30 08:41 22.31395 113.85846 510 ft 152 kts 69°
2026-04-30 08:41 22.31737 113.86920 349 ft 151 kts 68°
2026-04-30 08:41 22.32086 113.87993 116 ft 152 kts 68°
2026-04-30 08:41 22.32423 113.89037 44 ft 135 kts 68°
2026-04-30 08:42 22.32682 113.89838 43 ft 90 kts 71°
2026-04-30 08:42 22.32844 113.90334 41 ft 61 kts 71°
2026-04-30 08:42 22.32942 113.90714 41 ft 38 kts 90°
2026-04-30 08:42 22.32907 113.90979 43 ft 30 kts 101°
2026-04-30 08:43 22.32936 113.91190 43 ft 29 kts 68°
2026-04-30 08:43 22.33002 113.91394 43 ft 29 kts 71°
2026-04-30 08:43 22.33069 113.91599 42 ft 29 kts 71°
2026-04-30 08:43 22.33132 113.91803 42 ft 29 kts 72°
2026-04-30 08:44 22.33199 113.92006 42 ft 22 kts 69°
2026-04-30 08:44 22.33199 113.92095 42 ft 11 kts 131°
2026-04-30 08:44 22.33099 113.92146 42 ft 22 kts 160°
2026-04-30 08:44 22.32940 113.92206 42 ft 25 kts 162°
2026-04-30 08:45 22.32775 113.92268 42 ft 25 kts 161°
2026-04-30 08:45 22.32610 113.92326 42 ft 25 kts 162°
2026-04-30 08:45 22.32445 113.92390 42 ft 25 kts 160°
2026-04-30 08:45 22.32310 113.92443 42 ft 11 kts 160°
2026-04-30 08:46 22.32250 113.92480 42 ft 10 kts 120°
2026-04-30 08:46 22.32259 113.92556 42 ft 11 kts 72°
2026-04-30 08:46 22.32272 113.92633 42 ft 11 kts 107°
2026-04-30 08:46 22.32212 113.92678 42 ft 11 kts 160°
2026-04-30 08:47 22.32136 113.92705 41 ft 12 kts 164°
2026-04-30 08:47 22.32040 113.92738 40 ft 17 kts 161°
2026-04-30 08:47 22.31925 113.92782 42 ft 18 kts 158°
2026-04-30 08:47 22.31811 113.92834 42 ft 18 kts 156°
2026-04-30 08:48 22.31696 113.92881 42 ft 18 kts 161°
2026-04-30 08:48 22.31582 113.92924 42 ft 14 kts 170°
2026-04-30 08:48 22.31528 113.92891 42 ft 9 kts 238°
2026-04-30 08:48 22.31502 113.92827 42 ft 9 kts 251°